Thief River Falls, MN

3:51 AM CDT on May 30, 2017 (GMT -0500)
Thief River Falls Regional

Weather History for KTVF - August, 2012

Change the Weather History Date:

Saturday, August 25, 2012

  Actual Average Record
Temperature  
Mean Temperature 65 °F -  
Max Temperature 73 °F 73 °F 93 °F (1991)
Min Temperature 55 °F 53 °F 42 °F (2015)
Growing Degree Days 15 (Base 50)    
Moisture  
Dew Point 52 °F    
Average Humidity 62    
Maximum Humidity 88    
Minimum Humidity 36    
Precipitation  
Precipitation 0.25 in - - ()
Sea Level Pressure  
Sea Level Pressure 29.81 in    
Wind  
Wind Speed 12 mph (SW)    
Max Wind Speed 26 mph    
Max Gust Speed 45 mph    
Visibility 10 miles    
Events Thunderstorm    
Averages and records for this station are not official NWS values.
T = Trace of Precipitation, MM = Missing Value Source: NWS Daily Summary

Daily Weather History Graph

Daily Weather History Graph

Search for Another Location

Airport or City:

Trip Planner

Search our weather history database for the weather conditions in past years. The results will help you decide how hot, cold, wet, or windy it might be!

Date:

Astronomy

Aug. 25, 2012 Rise Set
Actual Time 6:33 AM CDT 8:18 PM CDT
Civil Twilight 6:00 AM CDT 8:51 PM CDT
Nautical Twilight 5:20 AM CDT 9:31 PM CDT
Astronomical Twilight 4:36 AM CDT 10:15 PM CDT
Moon 4:08 PM CDT (8/25) 12:03 AM CDT (8/25)
Length of Visible Light 14h 50m
Length of Day
13h 44m
Waxing Gibbous, 63% of the Moon is Illuminated
Aug 25
Waxing Gibbous
Aug 31
Full
Sep 8
Last Quarter
Sep 15
New
Sep 22
First Quarter

Hourly Weather History & Observations

Time (CDT) Temp. Dew Point Humidity Pressure Visibility Wind Dir Wind Speed Gust Speed Precip Events Conditions
12:15 AM 71.6 °F 59.0 °F 64% 29.80 in 8.0 mi West 26.5 mph 44.9 mph N/A Thunderstorm Mostly Cloudy
12:35 AM 64.4 °F 60.8 °F 88% 29.78 in 10.0 mi West 12.7 mph 21.9 mph 0.06 in Thunderstorm Mostly Cloudy
12:55 AM 64.4 °F 59.0 °F 83% 29.77 in 6.0 mi Calm Calm - 0.13 in Thunderstorm Overcast
1:15 AM 64.4 °F 60.8 °F 88% 29.74 in 10.0 mi ESE 5.8 mph - 0.03 in Thunderstorm Overcast
1:35 AM 64.4 °F 60.8 °F 88% 29.70 in 10.0 mi East 6.9 mph - 0.03 in   Scattered Clouds
1:55 AM 64.4 °F 60.8 °F 88% 29.68 in 10.0 mi ESE 9.2 mph - 0.03 in   Clear
2:15 AM 64.4 °F 59.0 °F 83% 29.65 in 10.0 mi ESE 9.2 mph - N/A   Clear
2:35 AM 64.4 °F 60.8 °F 88% 29.69 in 10.0 mi South 6.9 mph - N/A   Clear
2:55 AM 64.4 °F 60.8 °F 88% 29.72 in 10.0 mi SSE 5.8 mph - N/A   Scattered Clouds
3:15 AM 64.4 °F 60.8 °F 88% 29.71 in 10.0 mi SSE 3.5 mph - N/A   Partly Cloudy
3:55 AM 66.2 °F 60.8 °F 83% 29.70 in 10.0 mi SE 6.9 mph - N/A   Partly Cloudy
4:15 AM 66.2 °F 60.8 °F 83% 29.69 in 10.0 mi SE 9.2 mph - N/A   Clear
4:35 AM 66.2 °F 60.8 °F 83% 29.69 in 10.0 mi SSE 9.2 mph - N/A   Scattered Clouds
4:55 AM 66.2 °F 62.6 °F 88% 29.69 in 10.0 mi SSE 8.1 mph - N/A   Mostly Cloudy
5:15 AM 69.8 °F 64.4 °F 83% 29.69 in 10.0 mi South 15.0 mph 19.6 mph N/A   Overcast
5:35 AM 69.8 °F 64.4 °F 83% 29.69 in 10.0 mi SSW 15.0 mph 19.6 mph N/A   Overcast
5:55 AM 69.8 °F 64.4 °F 83% 29.69 in 10.0 mi SSW 12.7 mph - N/A   Mostly Cloudy
6:15 AM 69.8 °F 62.6 °F 78% 29.70 in 10.0 mi SW 15.0 mph 20.7 mph N/A   Mostly Cloudy
6:35 AM 68.0 °F 62.6 °F 83% 29.73 in 10.0 mi SW 16.1 mph 20.7 mph N/A   Mostly Cloudy
6:55 AM 68.0 °F 60.8 °F 78% 29.74 in 10.0 mi WSW 16.1 mph 21.9 mph N/A   Partly Cloudy
7:15 AM 66.2 °F 57.2 °F 73% 29.74 in 10.0 mi West 15.0 mph 21.9 mph N/A   Partly Cloudy
7:35 AM 62.6 °F 51.8 °F 68% 29.77 in 10.0 mi West 15.0 mph 26.5 mph N/A   Clear
7:55 AM 59.0 °F 48.2 °F 67% 29.79 in 5.0 mi West 15.0 mph 21.9 mph 0.09 in Thunderstorm Thunderstorm
8:15 AM 59.0 °F 50.0 °F 72% 29.80 in 10.0 mi West 13.8 mph 19.6 mph N/A Thunderstorm Mostly Cloudy
8:35 AM 59.0 °F 48.2 °F 67% 29.86 in 10.0 mi SW 16.1 mph 21.9 mph N/A   Scattered Clouds
8:55 AM 57.2 °F 46.4 °F 67% 29.86 in 10.0 mi WSW 12.7 mph - N/A   Scattered Clouds
9:15 AM 57.2 °F 48.2 °F 72% 29.83 in 10.0 mi West 9.2 mph - N/A   Mostly Cloudy
9:35 AM 57.2 °F 46.4 °F 67% 29.82 in 10.0 mi WNW 8.1 mph - N/A   Partly Cloudy
9:55 AM 57.2 °F 48.2 °F 72% 29.83 in 10.0 mi West 9.2 mph - N/A   Clear
10:15 AM 60.8 °F 48.2 °F 63% 29.85 in 10.0 mi WSW 10.4 mph - N/A   Clear
10:35 AM 62.6 °F 50.0 °F 63% 29.85 in 10.0 mi West 13.8 mph - N/A   Clear
11:15 AM 64.4 °F 48.2 °F 56% 29.85 in 10.0 mi West 13.8 mph - N/A   Clear
11:35 AM 64.4 °F 48.2 °F 56% 29.85 in 10.0 mi West 13.8 mph - N/A   Clear
11:55 AM 66.2 °F 48.2 °F 52% 29.86 in 10.0 mi West 15.0 mph - N/A   Clear
12:15 PM 66.2 °F 48.2 °F 52% 29.87 in 10.0 mi West 17.3 mph - N/A   Clear
12:35 PM 66.2 °F 48.2 °F 52% 29.87 in 10.0 mi West 12.7 mph 20.7 mph N/A   Clear
12:55 PM 68.0 °F 48.2 °F 49% 29.88 in 10.0 mi West 15.0 mph 21.9 mph N/A   Clear
1:15 PM 69.8 °F 48.2 °F 46% 29.88 in 10.0 mi West 11.5 mph 19.6 mph N/A   Clear
1:35 PM 69.8 °F 50.0 °F 49% 29.88 in 10.0 mi WSW 19.6 mph 24.2 mph N/A   Clear
1:55 PM 69.8 °F 50.0 °F 49% 29.88 in 10.0 mi WSW 15.0 mph 18.4 mph N/A   Clear
2:15 PM 71.6 °F 48.2 °F 43% 29.88 in 10.0 mi WSW 12.7 mph 19.6 mph N/A   Clear
2:35 PM 71.6 °F 48.2 °F 43% 29.87 in 10.0 mi WSW 16.1 mph 23.0 mph N/A   Clear
2:55 PM 71.6 °F 46.4 °F 41% 29.87 in 10.0 mi WSW 15.0 mph 20.7 mph N/A   Clear
3:15 PM 73.4 °F 46.4 °F 38% 29.86 in 10.0 mi West 11.5 mph 18.4 mph N/A   Clear
3:35 PM 73.4 °F 46.4 °F 38% 29.86 in 10.0 mi WSW 15.0 mph 20.7 mph N/A   Clear
3:55 PM 73.4 °F 46.4 °F 38% 29.86 in 10.0 mi WSW 11.5 mph - N/A   Clear
4:35 PM 73.4 °F 44.6 °F 36% 29.86 in 10.0 mi WSW 11.5 mph 19.6 mph N/A   Clear
4:55 PM 73.4 °F 46.4 °F 38% 29.85 in 10.0 mi WSW 11.5 mph 17.3 mph N/A   Clear
5:15 PM 73.4 °F 46.4 °F 38% 29.86 in 10.0 mi SW 11.5 mph 18.4 mph N/A   Clear
5:35 PM 73.4 °F 46.4 °F 38% 29.86 in 10.0 mi WSW 13.8 mph 17.3 mph N/A   Clear
5:55 PM 73.4 °F 46.4 °F 38% 29.85 in 10.0 mi WSW 15.0 mph 18.4 mph N/A   Clear
6:15 PM 73.4 °F 46.4 °F 38% 29.85 in 10.0 mi West 12.7 mph - N/A   Clear
6:35 PM 73.4 °F 44.6 °F 36% 29.85 in 10.0 mi West 13.8 mph - N/A   Clear
6:55 PM 73.4 °F 46.4 °F 38% 29.85 in 10.0 mi WSW 10.4 mph - N/A   Clear
7:15 PM 71.6 °F 46.4 °F 41% 29.85 in 10.0 mi WSW 11.5 mph - N/A   Clear
7:35 PM 71.6 °F 46.4 °F 41% 29.85 in 10.0 mi WSW 8.1 mph - N/A   Clear
7:55 PM 69.8 °F 46.4 °F 43% 29.85 in 10.0 mi WSW 6.9 mph - N/A   Clear
8:15 PM 64.4 °F 48.2 °F 56% 29.85 in 10.0 mi SSW 8.1 mph - N/A   Clear
8:35 PM 62.6 °F 48.2 °F 59% 29.86 in 10.0 mi SSW 8.1 mph - N/A   Clear
8:55 PM 62.6 °F 46.4 °F 55% 29.86 in 10.0 mi SSW 9.2 mph - N/A   Clear
9:15 PM 60.8 °F 46.4 °F 59% 29.87 in 10.0 mi South 6.9 mph - N/A   Clear
9:35 PM 59.0 °F 46.4 °F 63% 29.88 in 10.0 mi SSW 8.1 mph - N/A   Clear
9:55 PM 57.2 °F 46.4 °F 67% 29.88 in 10.0 mi SSW 8.1 mph - N/A   Clear
10:15 PM 57.2 °F 46.4 °F 67% 29.88 in 10.0 mi SSW 8.1 mph - N/A   Clear
10:35 PM 57.2 °F 46.4 °F 67% 29.88 in 10.0 mi SSW 9.2 mph - N/A   Clear
10:55 PM 57.2 °F 46.4 °F 67% 29.88 in 10.0 mi SSW 6.9 mph - N/A   Clear
11:35 PM 57.2 °F 44.6 °F 63% 29.87 in 10.0 mi South 8.1 mph - N/A   Clear
11:55 PM 55.4 °F 44.6 °F 67% 29.87 in 10.0 mi South 8.1 mph - N/A   Clear